Regional Weather Roundup
Issued by NWS

Home | Current Version | Previous Version | Text Only | Print | Product List | Glossary On
Versions: 1 2 3 4 5 6 7 8 9 10 11 12 13 14 15 16 17 18 19 20 21 22 23 24 25 26 27 28 29 30 31 32 33 34 35 36 37 38 39 40 41 42 43 44 45 46 47 48 49 50
000
ASUS44 KFWD 250003
RWRTX
NORTH TEXAS HOURLY WEATHER ROUNDUP
NATIONAL WEATHER SERVICE FORT WORTH TX
700 PM CDT TUE MAY 24 2016

NOTE: "FAIR" INDICATES FEW OR NO CLOUDS BELOW 12,000 FEET WITH NO
SIGNIFICANT WEATHER AND/OR OBSTRUCTIONS TO VISIBILITY.

TXZ118-119-250100-
DALLAS/FORT WORTH METROPLEX

CITY           SKY/WX    TMP DP  RH WIND       PRES   REMARKS
DFW AIRPORT    CLOUDY    85  71  63 S16       29.88F HX  90
6HR MIN TEMP:  81; 6HR MAX TEMP:  87;

DALLAS LOVE    PTSUNNY   86  72  62 S14       29.89S HX  92
6HR MIN TEMP:  81; 6HR MAX TEMP:  87;

FTW MEACHAM    CLOUDY    85  71  63 S16       29.88F HX  90
6HR MIN TEMP:  83; 6HR MAX TEMP:  90;

DAL-EXECUTIVE  MOSUNNY   84  71  65 S13G18    29.89F
6HR MIN TEMP:  79; 6HR MAX TEMP:  85;

FTW-ALLIANCE   PTSUNNY   82  71  69 S13       29.87F
6HR MIN TEMP:  80; 6HR MAX TEMP:  86;

FTW-NAS-JRB    CLOUDY    84  71  65 S15       29.89F
6HR MIN TEMP:  81; 6HR MAX TEMP:  87;

FTW-SPINKS     PTSUNNY   82  72  69 SE10      29.91F
ARLINGTON      PTSUNNY   87  72  60 SE10      29.89F HX  93
6HR MIN TEMP:  83; 6HR MAX TEMP:  89;

GRAND PRAIRIE  MOSUNNY   84  70  61 SE10      29.90F
ADDISON        PTSUNNY   84  73  70 S14G21    29.91S HX  91
MESQUITE       CLOUDY    82  73  74 SE8       29.91S
LANCASTER      CLOUDY    84  71  64 S8        29.91S
6HR MIN TEMP:  80; 6HR MAX TEMP:  86;

$$

TXZ091>094-102>105-117-120-121-131>134-250100-
NORTH CENTRAL TEXAS

CITY           SKY/WX    TMP DP  RH WIND       PRES   REMARKS
SHRMAN/DENISON CLOUDY    78  68  69 SE10      29.91S
6HR MIN TEMP:  77; 6HR MAX TEMP:  81;

DECATUR        MOSUNNY   83  70  66 S15G21    29.88F
6HR MIN TEMP:  78; 6HR MAX TEMP:  83;

DENTON         MOSUNNY   82  72  71 SE16      29.86F
6HR MIN TEMP:  80; 6HR MAX TEMP:  85;

MCKINNEY       CLOUDY    83  73  72 S13       29.90S
6HR MIN TEMP:  76; 6HR MAX TEMP:  84; 6HR PCP: TRACE;

ROCKWALL       PTSUNNY   83  74  73 S8        29.90S
6HR MIN TEMP:  80; 6HR MAX TEMP:  86;

TERRELL        MOSUNNY   85  73  67 S12       29.91S HX  91
6HR MIN TEMP:  81; 6HR MAX TEMP:  87;

WAXAHACHIE     CLOUDY    83  74  73 S7        29.92S
6HR MIN TEMP:  80; 6HR MAX TEMP:  85;

CLEBURNE       MOSUNNY   82  77  83 S10       29.92S HX  91
GRANBURY       CLOUDY    85  72  64 SE10      29.90S HX  91
6HR MIN TEMP:  84; 6HR MAX TEMP:  88;

$$

TXZ083>090-098>101-113>116-127>130-139>142-154-155-250100-
WESTERN NORTH TEXAS

CITY           SKY/WX    TMP DP  RH WIND       PRES   REMARKS
WICHITA FALLS  CLOUDY    83  72  69 S14       29.82F
6HR MIN TEMP:  83; 6HR MAX TEMP:  87; 6HR PCP: TRACE;

WF-KICKAPOO    CLOUDY    84  73  67 SE13      29.84S HX  90
6HR MIN TEMP:  84; 6HR MAX TEMP:  88;

VERNON         CLOUDY    85  65  51 S17G23    29.82F
6HR MIN TEMP:  66; 6HR MAX TEMP:  89;

ABILENE        CLOUDY    81  72  74 S16       29.88S
6HR MIN TEMP:  78; 6HR MAX TEMP:  84;

ABILENE-DYESS  PTSUNNY   82  66  59 SE17      29.86S
6HR MIN TEMP:  80; 6HR MAX TEMP:  84;

MINERAL WELLS  CLOUDY    82  73  74 S10       29.86F
6HR MIN TEMP:  82; 6HR MAX TEMP:  87; 6HR PCP: TRACE;

STEPHENVILLE   CLOUDY    81  71  71 S9        29.94S
6HR MIN TEMP:  81; 6HR MAX TEMP:  87;

COMANCHE       CLOUDY    80  73  78 S12G17    29.92F
6HR MIN TEMP:  79; 6HR MAX TEMP:  85;

BROWNWOOD      PTSUNNY   81  72  74 S12       29.92S
COLEMAN        PTSUNNY   81  71  71 SE14G21   29.91S
6HR MIN TEMP:  81; 6HR MAX TEMP:  84;

$$

TXZ143>147-156>162-174-175-250100-
CENTRAL TEXAS

CITY           SKY/WX    TMP DP  RH WIND       PRES   REMARKS
WACO           PTSUNNY   86  72  62 S14       29.90S HX  92
6HR MIN TEMP:  84; 6HR MAX TEMP:  90;

WACO-MCGREGOR  PTSUNNY   85  75  72 S13       29.90F HX  93
6HR MIN TEMP:  84; 6HR MAX TEMP:  88;

HILLSBORO      CLOUDY    84  73  69 SE13G18   29.91S
6HR MIN TEMP:  80; 6HR MAX TEMP:  86;

CORSICANA      CLOUDY    86  73  65 SE10      29.92S HX  93
6HR MIN TEMP:  82; 6HR MAX TEMP:  89;

MEXIA          PTSUNNY   84  73  70 SE8G17    29.91S HX  90
6HR MIN TEMP:  82; 6HR MAX TEMP:  87;

HEARNE         CLOUDY    84  75  72 SE10G16   29.92S HX  92
6HR MIN TEMP:  84; 6HR MAX TEMP:  88;

CAMERON        CLOUDY    85  75  73 S9        29.91S HX  93
6HR MIN TEMP:  85; 6HR MAX TEMP:  89;

TEMPLE         CLOUDY    84  74  71 S17       29.91S HX  91
6HR MIN TEMP:  84; 6HR MAX TEMP:  87;

KILLEEN        CLOUDY    83  74  73 SE13      29.91S
6HR MIN TEMP:  83; 6HR MAX TEMP:  86;

KILLEEN-SKYLRK CLOUDY    84  74  71 S13       29.92R HX  91
6HR MIN TEMP:  83; 6HR MAX TEMP:  87;

FORT HOOD      CLOUDY    83  73  71 S12       29.90S
6HR MIN TEMP:  82; 6HR MAX TEMP:  87;

HAMILTON       PTSUNNY   83  72  70 S10       29.93R
6HR MIN TEMP:  82; 6HR MAX TEMP:  88;

LAMPASAS       CLOUDY    83  75  77 SE9       29.91F HX  90
6HR MIN TEMP:  82; 6HR MAX TEMP:  85;

$$

TXZ095>097-106>112-122>126-135>138-148>153-164>167-250100-
EAST TEXAS

CITY           SKY/WX    TMP DP  RH WIND       PRES   REMARKS
PARIS          PTSUNNY   81  66  61 SE8       29.95R
6HR MIN TEMP:  81; 6HR MAX TEMP:  84;

SULPHUR SPRNGS CLOUDY    84  72  66 SE5       29.95R HX  90
6HR MIN TEMP:  81; 6HR MAX TEMP:  87;

MOUNT PLEASANT MOSUNNY   82  71  69 SE7       29.96R
6HR MIN TEMP:  79; 6HR MAX TEMP:  86;

MINEOLA        MOSUNNY   84  73  70 SE5       29.94R HX  91
TYLER          MOSUNNY   87  71  58 S9        29.93R HX  93
6HR MIN TEMP:  83; 6HR MAX TEMP:  89;

LONGVIEW       PTSUNNY   84  72  67 SE9       29.94R
6HR MIN TEMP:  80; 6HR MAX TEMP:  86; 6HR PCP: TRACE;

ATHENS         SUNNY     84  72  65 S8        29.91S
PALESTINE      MOSUNNY   86  74  68 SE6       29.93F HX  94
JACKSONVILLE   CLOUDY    84  73  69 SE9       29.97R HX  90
CENTER         FAIR      85  75  72 SE7       29.96R HX  93
6HR MIN TEMP:  82; 6HR MAX TEMP:  88;

NACOGDOCHES    MOSUNNY   82  73  74 S8        29.95R
6HR MIN TEMP:  81; 6HR MAX TEMP:  86; 6HR PCP:  0.02;

LUFKIN         MOSUNNY   84  73  69 SE15      29.95S HX  90
6HR MIN TEMP:  83; 6HR MAX TEMP:  89; 6HR PCP:  0.01;

$$

SUPPLEMENTAL OBSERVATIONS (CENTRAL)

CITY           SKY/WX    TMP DP  RH WIND       PRES   REMARKS
$$

SUPPLEMENTAL OBSERVATIONS (WEST)

CITY           SKY/WX    TMP DP  RH WIND       PRES   REMARKS
$$

SUPPLEMENTAL OBSERVATIONS (EAST)

CITY           SKY/WX    TMP DP  RH WIND       PRES   REMARKS
$$

SUPPLEMENTAL OBSERVATIONS ARE A COLLECTION OF AUTOMATED INSTRUMENTS
THAT ARE MAINTAINED BY A VARIETY OF FEDERAL AND STATE AGENCIES.
CERTAIN ELEMENTS...SUCH AS HUMIDITY VALUES AND SUSTAINED WIND
SPEEDS...MAY BE APPROXIMATED.





USA.gov is the U.S. government's official web portal to all federal, state and local government web resources and services.